Location: Grieser Field
(39.7333°N, 81.7975°W)
Time: 16:44:22
(UTC-04:00)

HST - Visible Passes

Search period start: 18 April 2014 00:00
Search period end: 28 April 2014 00:00
Orbit: 548 x 553 km, 28.5° (Epoch: 17 April)

Date Brightness Start Highest point End Pass type
(mag) Time Alt. Az. Time Alt. Az. Time Alt. Az.
18 Apr 2.6 21:14:17 10° SW 21:16:56 16° S 21:18:04 15° SSE visible
19 Apr 2.6 21:07:35 10° SW 21:10:21 17° S 21:12:05 14° SSE visible
20 Apr 2.6 21:00:58 10° SW 21:03:45 17° S 21:06:02 12° SE visible
21 Apr 2.7 20:54:24 10° SW 20:57:09 17° S 20:59:54 10° SE visible
22 Apr 2.8 20:47:54 10° SW 20:50:32 16° S 20:53:10 10° SSE visible
23 Apr 2.9 20:41:30 10° SW 20:43:55 15° S 20:46:20 10° SSE visible
